Cody, WY

12:09 AM MDT on May 30, 2017 (GMT -0600)
Yellowstone Regional

Weather History for KCOD - January, 2012

Change the Weather History Date:

Friday, January 20, 2012

  Actual Average Record
Temperature  
Mean Temperature 22 °F -  
Max Temperature 42 °F 38 °F 64 °F (1944)
Min Temperature 1 °F 14 °F -27 °F (1937)
Degree Days  
Heating Degree Days 44    
Moisture  
Dew Point 11 °F    
Average Humidity 80    
Maximum Humidity 100    
Minimum Humidity 41    
Precipitation  
Precipitation 0.00 in - - ()
Sea Level Pressure  
Sea Level Pressure 29.68 in    
Wind  
Wind Speed 16 mph (NE)    
Max Wind Speed 28 mph    
Max Gust Speed 41 mph    
Visibility 10 miles    
Events      
Averages and records for this station are not official NWS values.
T = Trace of Precipitation, MM = Missing Value Source: NWS Daily Summary

Daily Weather History Graph

Daily Weather History Graph

Search for Another Location

Airport or City:

Trip Planner

Search our weather history database for the weather conditions in past years. The results will help you decide how hot, cold, wet, or windy it might be!

Date:

Astronomy

Jan. 20, 2012 Rise Set
Actual Time 7:46 AM MST 5:08 PM MST
Civil Twilight 7:14 AM MST 5:40 PM MST
Nautical Twilight 6:38 AM MST 6:15 PM MST
Astronomical Twilight 6:03 AM MST 6:50 PM MST
Moon 5:29 AM MST (1/20) 2:40 PM MST (1/20)
Length of Visible Light 10h 25m
Length of Day
9h 21m
Waning Crescent, 8% of the Moon is Illuminated
Jan 20
Waning Crescent
Jan 23
New
Jan 30
First Quarter
Feb 7
Full
Feb 14
Last Quarter

Hourly Weather History & Observations

Time (MST) Temp. Windchill Dew Point Humidity Pressure Visibility Wind Dir Wind Speed Gust Speed Precip Events Conditions
12:16 AM - - - N/A% 29.45 in 10.0 mi SW 26.5 mph 38.0 mph N/A   Clear
12:35 AM - - - N/A% 29.45 in 10.0 mi SW 26.5 mph 41.4 mph N/A   Clear
12:55 AM - - - N/A% 29.45 in 10.0 mi SW 23.0 mph 36.8 mph N/A   Clear
1:15 AM - - - N/A% 29.46 in 10.0 mi SW 15.0 mph 31.1 mph N/A   Clear
1:35 AM - - - N/A% 29.47 in 10.0 mi SW 19.6 mph 39.1 mph N/A   Clear
1:55 AM - - - N/A% 29.48 in 10.0 mi SW 27.6 mph 36.8 mph N/A   Clear
2:15 AM - - - N/A% 29.48 in 10.0 mi SW 25.3 mph 39.1 mph N/A   Clear
2:35 AM - - - N/A% 29.50 in 10.0 mi SW 23.0 mph 34.5 mph N/A   Clear
2:55 AM - - - N/A% 29.49 in 10.0 mi SW 24.2 mph 33.4 mph N/A   Clear
3:15 AM - - - N/A% 29.50 in 10.0 mi SW 25.3 mph 38.0 mph N/A   Clear
3:35 AM - - - N/A% 29.52 in 10.0 mi SW 18.4 mph 29.9 mph N/A   Clear
3:55 AM - - - N/A% 29.54 in 10.0 mi NNE 13.8 mph 23.0 mph N/A   Clear
4:15 AM 17.6 °F 2.2 °F 14.0 °F 86% 29.56 in 10.0 mi NNE 17.3 mph - N/A   Clear
4:35 AM 10.4 °F -7.2 °F 6.8 °F 85% 29.58 in 10.0 mi North 17.3 mph - N/A   Clear
4:55 AM 5.0 °F -10.0 °F -0.4 °F 78% 29.61 in 10.0 mi North 10.4 mph - N/A   Clear
5:15 AM 6.8 °F -10.7 °F 6.8 °F 100% 29.60 in 10.0 mi NE 15.0 mph 18.4 mph N/A   Clear
5:35 AM 6.8 °F -12.4 °F 6.8 °F 100% 29.61 in 10.0 mi NNE 18.4 mph - N/A   Clear
5:55 AM 5.0 °F -15.7 °F 3.2 °F 92% 29.64 in 10.0 mi North 20.7 mph 25.3 mph N/A   Clear
6:15 AM 1.4 °F -16.9 °F -2.2 °F 85% 29.67 in 10.0 mi North 13.8 mph 24.2 mph N/A   Clear
6:35 AM 3.2 °F -15.3 °F 3.2 °F 100% 29.67 in 10.0 mi North 15.0 mph 21.9 mph N/A   Partly Cloudy
6:55 AM 1.4 °F -14.5 °F -0.4 °F 92% 29.71 in 10.0 mi North 10.4 mph - N/A   Mostly Cloudy
7:15 AM 3.2 °F - 1.4 °F 92% 29.74 in 10.0 mi Calm Calm - N/A   Mostly Cloudy
7:35 AM 5.0 °F -8.1 °F 5.0 °F 100% 29.74 in 10.0 mi SE 8.1 mph - N/A   Mostly Cloudy
7:55 AM 3.2 °F -12.2 °F -0.4 °F 85% 29.75 in 10.0 mi SE 10.4 mph - N/A   Partly Cloudy
8:15 AM 3.2 °F -12.2 °F -0.4 °F 85% 29.76 in 10.0 mi ESE 10.4 mph - N/A   Scattered Clouds
8:35 AM 8.6 °F -2.6 °F 8.6 °F 100% 29.77 in 10.0 mi ESE 6.9 mph - N/A   Mostly Cloudy
8:55 AM 12.2 °F - 10.4 °F 92% 29.77 in 10.0 mi Calm Calm - N/A   Mostly Cloudy
9:15 AM 12.2 °F 4.3 °F 8.6 °F 85% 29.79 in 10.0 mi SW 4.6 mph - N/A   Mostly Cloudy
9:35 AM 17.6 °F - 12.2 °F 79% 29.79 in 10.0 mi Calm Calm - N/A   Partly Cloudy
9:55 AM 23.0 °F - 17.6 °F 80% 29.79 in 10.0 mi Calm Calm - N/A   Clear
10:35 AM 26.6 °F 22.6 °F 17.6 °F 69% 29.80 in 10.0 mi NNW 3.5 mph - N/A   Clear
10:55 AM 30.2 °F 25.4 °F 19.4 °F 64% 29.81 in 10.0 mi North 4.6 mph - N/A   Clear
11:15 AM 33.8 °F - 23.0 °F 65% 29.80 in 10.0 mi Calm Calm - N/A   Clear
11:55 AM 41.0 °F 33.1 °F 28.4 °F 61% 29.79 in 10.0 mi ESE 15.0 mph - N/A   Clear
12:15 PM 42.8 °F 35.8 °F 28.4 °F 57% 29.78 in 10.0 mi ESE 13.8 mph - N/A   Clear
12:35 PM - - - N/A% 29.78 in 10.0 mi ESE 11.5 mph 17.3 mph N/A   Scattered Clouds
12:55 PM - - - N/A% 29.76 in 10.0 mi SSW 16.1 mph 21.9 mph N/A   Partly Cloudy
1:15 PM - - - N/A% 29.75 in 10.0 mi South 15.0 mph 21.9 mph N/A   Clear
1:35 PM - - - N/A% 29.75 in 10.0 mi SW 11.5 mph - N/A   Clear
1:55 PM - - - N/A% 29.75 in 10.0 mi SW 10.4 mph 16.1 mph N/A   Clear
2:15 PM 33.8 °F 23.9 °F 12.2 °F 41% 29.76 in 10.0 mi North 15.0 mph - N/A   Clear
2:55 PM - - - N/A% 29.77 in 10.0 mi North 12.7 mph - N/A   Clear
3:15 PM - - - N/A% 29.77 in 10.0 mi NNE 13.8 mph - N/A   Partly Cloudy
3:35 PM - - - N/A% 29.77 in 10.0 mi NNE 8.1 mph - N/A   Clear
3:55 PM - - - N/A% 29.77 in 10.0 mi NNE 5.8 mph - N/A   Partly Cloudy
4:15 PM - - - N/A% 29.77 in 10.0 mi North 5.8 mph - N/A   Scattered Clouds
4:35 PM - - - N/A% 29.77 in 10.0 mi NNW 3.5 mph - N/A   Partly Cloudy
4:55 PM - - - N/A% 29.78 in 10.0 mi Calm Calm - N/A   Partly Cloudy
5:15 PM 24.8 °F 19.1 °F 15.8 °F 69% 29.77 in 10.0 mi NE 4.6 mph - N/A   Scattered Clouds
5:35 PM 24.8 °F - 15.8 °F 69% 29.78 in 10.0 mi Calm Calm - N/A   Partly Cloudy
5:55 PM 23.0 °F 17.0 °F 15.8 °F 74% 29.77 in 10.0 mi SE 4.6 mph - N/A   Clear
6:15 PM 24.8 °F 16.1 °F 19.4 °F 80% 29.76 in 10.0 mi SE 8.1 mph - N/A   Scattered Clouds
6:36 PM 24.8 °F - 15.8 °F 69% 29.76 in 10.0 mi Calm Calm - N/A   Scattered Clouds
6:55 PM 21.2 °F - 15.8 °F 80% 29.76 in 10.0 mi Calm Calm - N/A   Scattered Clouds
7:35 PM 33.8 °F 25.3 °F 24.8 °F 70% 29.74 in 10.0 mi East 11.5 mph - N/A   Mostly Cloudy
7:55 PM 32.0 °F 26.4 °F 23.0 °F 69% 29.73 in 10.0 mi ESE 5.8 mph - N/A   Partly Cloudy
8:15 PM 32.0 °F 26.4 °F 21.2 °F 64% 29.72 in 10.0 mi ESE 5.8 mph - N/A   Clear
8:35 PM 32.0 °F 24.8 °F 24.8 °F 75% 29.72 in 10.0 mi ESE 8.1 mph - N/A   Clear
8:55 PM 30.2 °F 21.9 °F 24.8 °F 80% 29.71 in 10.0 mi ESE 9.2 mph - N/A   Partly Cloudy
9:15 PM 32.0 °F 23.6 °F 24.8 °F 75% 29.70 in 10.0 mi SE 10.4 mph - N/A   Partly Cloudy
9:35 PM 30.2 °F 23.4 °F 24.8 °F 80% 29.68 in 10.0 mi ESE 6.9 mph - N/A   Clear
9:55 PM 33.8 °F 29.6 °F 24.8 °F 70% 29.67 in 10.0 mi SE 4.6 mph - N/A   Clear
10:35 PM 32.0 °F - 21.2 °F 64% 29.65 in 10.0 mi Calm Calm - N/A   Clear
11:15 PM 30.2 °F 26.7 °F 21.2 °F 69% 29.64 in 10.0 mi SE 3.5 mph - N/A   Clear
11:35 PM 30.2 °F 23.4 °F 21.2 °F 69% 29.63 in 10.0 mi WSW 6.9 mph - N/A   Clear